Regional Weather Roundup
Issued by NWS

Home | Current Version | Previous Version | Text Only | Print | Product List | Glossary Off
Versions: 1 2 3 4 5 6 7 8 9 10 11 12 13 14 15 16 17 18 19 20 21 22 23 24 25 26 27 28 29 30 31 32 33 34 35 36 37 38 39 40 41 42 43 44 45 46 47 48 49 50

000
ASUS43 KLOT 220410
RWRIL

ILLINOIS REGIONAL WEATHER ROUNDUP
NATIONAL WEATHER SERVICE CHICAGO/ROMEOVILLE IL
1100 PM CDT SUN SEP 21 2014

NOTE: "FAIR" INDICATES FEW OR NO CLOUDS BELOW 12,000 FEET WITH NO
SIGNIFICANT WEATHER AND/OR OBSTRUCTIONS TO VISIBILITY.

* THESE STATIONS ARE NOT UNDER NWS QUALITY CONTROL. THEY ALSO MAY NOT
  REPORT WEATHER SUCH AS PRECIPITATION OR FOG.

ILZ001-002-007-009-015-016-024-220500-
NORTHWEST ILLINOIS

CITY           SKY/WX    TMP DP  RH WIND       PRES   REMARKS
MOLINE         CLEAR     57  47  69 N5        30.17R
STERLING*      CLEAR     52  45  76 N3        30.16R
SAVANNA*       CLEAR     50  47  90 CALM      30.18R
$$

ILZ003-004-008-010-011-017-018-220500-
NORTH CENTRAL ILLINOIS

CITY           SKY/WX    TMP DP  RH WIND       PRES   REMARKS
ROCKFORD       CLEAR     52  45  77 CALM      30.19R
FREEPORT*      CLEAR     49  46  89 NW3       30.19S
ROCHELLE*      CLEAR     48  44  87 N3        30.16R
DE KALB*       CLEAR     48  44  87 N5        30.16R
PERU*          CLEAR     50  47  88 NW7       30.16R
$$

ILZ005-006-012>014-019>023-220500-
NORTHEAST ILLINOIS

CITY           SKY/WX    TMP DP  RH WIND       PRES   REMARKS
CHICAGO-OHARE  CLEAR     54  44  69 N5        30.14R
CHICAGO-MIDWAY CLEAR     56  46  69 N8        30.13S
AURORA         CLEAR     47  43  86 NW5       30.15R
LANSING*       CLEAR     54  45  70 N3        30.13S
JOLIET*        CLEAR     52  49  90 CALM      30.15R
WAUKEGAN       CLEAR     49  42  77 NW6       30.14R
DUPAGE AIRPORT CLEAR     48  43  82 NE5       30.14R
KANKAKEE*      CLEAR     53  49  87 CALM      30.14R
WHEELING       CLEAR     50  45  83 CALM      30.16R
MORRIS*        CLEAR     50  48  93 CALM      30.14S
ROMEOVILLE*    CLEAR     50  49  94 N5        30.14S
NORTHERLY ISL    N/A     57  44  62 N10         N/A
$$

LMZ740>746-220500-
SOUTHERN LAKE MICHIGAN

STATION/POSITION SKY/WX   TEMP    WIND        PRES    VSBY  WAVE
                          AIR SEA DIR/SP/G                  HT/PER
                          (F)     (DEG/KT/KT) (MB)    (MI)  (FT/S)
SOUTHERN BUOY              54 61  350/ 19/ 23 1020.1R         7/ 8
WAUKEGAN HARBOR            53     340/  8/ 10   N/A
HARRISON CRIB              58     350/ 17/ 20   N/A
BURNHAM HARBOR             57     350/ 11/ 16   N/A
CALUMET HARBOR             57     340/ 11/ 15 1018.9R
MICHIGAN CITY              57     350/ 22/ 26   N/A
MICHIGAN CITY 6N           58 64   10/ 17/ 21   N/A           8/ 8
ST. JOSEPH                 57 65   10/ 19/ 27   N/A           8/ 7
$$

ILZ025>027-034>036-040-047-049-050-058-095>099-220500-
WEST-CENTRAL ILLINOIS

CITY           SKY/WX    TMP DP  RH WIND       PRES   REMARKS
QUINCY         CLEAR     54  49  83 N6        30.19R
GALESBURG*     CLEAR     52  50  92 NW5       30.18R
MACOMB*        CLEAR     52  50  92 NW6       30.20R
JACKSONVILLE*  CLEAR     54  51  90 W5        30.18S
PITTSFIELD*    CLEAR     56  50  81 CALM      30.19S
$$

ILZ028>032-037-038-041>044-048-051>054-059>061-220500-
CENTRAL ILLINOIS

CITY           SKY/WX    TMP DP  RH WIND       PRES   REMARKS
PONTIAC        CLEAR     52  52 100 NW3       30.15R
DECATUR        CLEAR     57  51  80 NW12      30.15R
PEORIA         CLEAR     57  51  80 NW5       30.16R
LACON*         CLEAR     50  47  91 CALM      30.15S
LINCOLN*       CLEAR     55  51  85 NW3       30.14S
SPRINGFIELD    CLEAR     55  51  86 NW5       30.16S
TAYLORVILLE    CLEAR     54  50  87 NW5       30.15S
$$

ILZ033-039-045-046-055>057-062-063-220500-
EAST-CENTRAL ILLINOIS

CITY           SKY/WX    TMP DP  RH WIND       PRES   REMARKS
CHAMPAIGN      CLEAR     54  51  90 NW8       30.13R
DANVILLE*      CLOUDY    55  52  88 N5        30.10R
RANTOUL*       CLEAR     58  51  79 N8        30.14R
MATTOON        CLEAR     52  49  89 NW8       30.12S
PARIS*         MOCLDY    56  52  86 NW3       30.12R
$$

ILZ079-100>102-220500-
SOUTHWEST ILLINOIS

CITY           SKY/WX    TMP DP  RH WIND       PRES   REMARKS
ALTON          CLEAR     58  51  75 N6        30.17R
BELLEVILLE     CLEAR     60  52  75 W6        30.15R
CAHOKIA*       CLEAR     63  51  65 N12       30.17R
SPARTA*        CLEAR     59  51  74 N5        30.16R
$$

ILZ064>066-069>071-074>076-080>082-084>086-088>090-092>094-220500-
SOUTH-CENTRAL ILLINOIS

CITY           SKY/WX    TMP DP  RH WIND       PRES   REMARKS
CARBONDALE     CLEAR     62  50  64 N7        30.13R
CAIRO*         CLEAR     62  51  68 N5        30.11R
EFFINGHAM*     CLEAR     58  48  70 NW7       30.14R
MARION         CLEAR     63  52  67 N5        30.13R
MT. VERNON     CLEAR     59  48  67 N5        30.15R
CENTRALIA*     CLEAR     56  50  79 N5        30.14R
SALEM*         CLEAR     58  54  85 N3        30.15R
METROPOLIS*    CLEAR     62  52  69 N5        30.10R
$$

ILZ067-068-072-073-078-083-087-091-220500-
SOUTHEAST ILLINOIS

CITY           SKY/WX    TMP DP  RH WIND       PRES   REMARKS
LAWRENCEVILLE  CLEAR     58  51  78 N9        30.12R
FLORA*         CLEAR     56  50  79 N6        30.14R
FAIRFIELD*     CLEAR    N/A N/A N/A N5        30.13R
HARRISBURG*    CLEAR     60  51  70 N3        30.13R
ROBINSON*      CLEAR     58  53  81 NW6       30.12R
CARMI*         CLEAR     60  54  80 N7        30.11R
$$

ABBREVIATIONS USED IN REMARKS
   TC - TEMPERATURE IN CELSIUS
  WCI - WIND CHILL INDEX
   HX - HEAT INDEX
  VSB - VISIBILITY
$$




USA.gov is the U.S. government's official web portal to all federal, state and local government web resources and services.